User: anonymous   Login
Location: Oshawa
(43.9000°N, 78.8670°W)
Time: 19:42:08
(UTC-04:00)
Language:

Cosmos 1953 Rocket - Orbit

View from above orbital plane
View from above orbital plane
View from above satellite
View from above satellite

Ground track
Ground track

The orbit data is extracted from the following two-line orbital elements,

1 19211U 88050B   17289.59070362  .00000116  00000-0  11254-4 0  9999
2 19211  82.5242  88.8787 0023394  78.3802 327.6413 14.82980593584781
Epoch (UTC): 16 October 2017 14:10:36
Eccentricity: 0.0023394
inclination: 82.5242°
perigee height: 603 km
apogee height: 636 km
right ascension of ascending node: 88.8787°
argument of perigee: 78.3802°
revolutions per day: 14.82980593
mean anomaly at epoch: 327.6413°
orbit number at epoch: 58478

The dashed part of the orbit path shows where the satellite is in the earth's shadow,  

DLR